Location: Krakow
(50.0830°N, 19.9170°E)
Time: 10:27:27
(UTC+02:00)

A-11 Canister half - Pass Details

Date: 16 March 2026
Orbit: 1523 x 1684 km, 47.3° (Epoch: 16 April)

Event Time Altitude Azimuth Distance (km) Brightness Sun altitude
Rises 06:38:17 0° 176° (S) 4,898 11.8 6.5°
Reaches altitude 10° 06:43:26 10° 155° (SSE) 3,890 11.7 7.3°
Maximum altitude 06:48:11 15° 125° (SE) 3,504 12.4 8.1°
Drops below altitude 10° 06:52:53 10° 96° (E) 3,840 13.8 8.8°
Sets 06:57:50 0° 75° (ENE) 4,796 12.8 9.6°
